Wind_Speed
7 6 6 5 4 4 3 2 2 2 3 3 3 3 2 2 3 4 5 6 5 5 6 6 6 6 6 7 6 7 7 7 7 8 9 9 9 10 9 9 7 6 5 6
7 6 6 5 3 3 2 3 2 2 2 2 2 2 2 3 3 4 4 5 5 5 5 5 6 6 6 6 6 6 7 7 8 8 9 9 9 10 10 9 9 7 6 6
8 7 7 5 3 2 2 2 1 1 1 1 2 3 3 3 4 4 5 5 6 5 5 5 6 6 7 7 6 6 7 7 7 8 9 9 10 10 10 10 9 9 8 6
9 8 6 5 4 3 3 3 2 1 0 1 1 1 3 3 4 4 5 5 6 6 5 6 6 7 7 7 6 6 7 7 7 8 9 10 10 10 10 10 9 9 9 8
9 8 6 6 6 5 4 4 3 2 1 1 1 1 3 4 4 4 5 6 5 5 6 6 6 6 7 8 7 6 7 7 8 8 9 10 10 10 10 10 10 10 9 9
11 9 8 6 6 6 4 4 3 3 2 3 3 2 4 5 5 5 5 6 6 6 6 6 6 6 7 7 8 8 9 8 8 9 9 10 10 11 11 11 10 10 10 9
12 11 10 9 7 7 5 3 3 3 4 5 5 4 5 5 6 6 6 6 7 7 7 7 7 7 8 8 8 8 10 9 9 10 10 11 11 11 11 11 11 10 10 10
14 13 12 11 9 8 7 6 5 5 5 6 6 6 6 7 7 6 6 7 7 7 7 8 8 8 9 9 9 10 10 11 11 11 11 12 12 12 12 12 12 12 12 12
14 15 14 12 11 11 10 9 8 8 8 7 8 8 8 9 9 9 8 8 8 7 7 8 9 9 10 11 11 12 12 12 13 12 13 13 14 14 13 13 13 14 13 13
16 16 15 14 13 13 12 11 11 9 9 9 9 9 10 10 10 10 9 9 8 8 8 8 9 10 11 12 13 13 13 14 14 14 15 15 15 15 15 14 14 15 15 14
17 16 16 16 15 14 14 14 13 11 10 8 9 10 12 11 11 11 10 10 10 10 10 10 11 12 12 13 14 14 15 15 15 16 17 17 16 16 16 16 16 16 16 15
17 17 17 17 16 16 15 14 14 13 13 11 11 13 13 13 12 12 12 12 12 13 12 12 13 13 14 15 15 16 16 16 16 17 17 18 17 17 17 18 18 18 17 17
18 17 17 17 17 18 17 16 15 14 13 13 12 13 14 14 14 13 14 14 14 14 14 14 14 15 15 16 17 17 17 17 18 18 18 18 18 19 19 20 20 20 20 19
19 19 18 17 17 18 18 16 16 16 15 15 15 15 15 15 15 15 15 15 16 16 16 16 17 17 17 18 19 19 18 19 19 19 20 20 20 21 21 22 22 22 22 21
21 21 20 19 19 19 18 17 17 17 17 16 17 16 16 17 17 17 17 17 17 18 19 19 19 19 19 20 20 20 20 20 20 21 22 22 22 23 23 23 24 24 24 23
23 22 22 21 20 20 19 19 18 18 19 19 19 18 18 19 19 19 19 19 19 20 20 20 21 21 21 21 21 21 22 22 22 23 23 24 24 24 24 25 25 25 25 25
24 23 22 22 22 22 21 20 20 20 20 20 20 20 20 21 21 21 21 21 21 21 21 22 22 23 23 23 24 24 24 24 25 26 26 26 26 27 27 26 26 26 26 26
25 24 23 23 23 23 22 23 22 22 21 21 22 23 22 23 23 22 23 22 22 22 23 24 24 24 25 26 27 27 27 28 28 28 28 27 27 28 28 27 27 27 26 27
26 25 24 23 24 25 24 23 23 23 23 23 23 24 24 24 24 24 24 25 25 25 25 26 27 27 27 28 29 30 30 29 29 29 29 28 28 28 28 28 28 27 27 27
26 26 26 26 25 25 25 24 23 24 24 24 24 24 25 24 25 25 25 26 27 27 28 29 29 29 29 30 31 31 30 29 29 29 30 29 29 29 29 29 28 28 28 28
27 27 27 27 26 26 26 25 24 24 25 25 25 25 25 26 26 26 27 27 28 29 29 30 30 30 30 30 30 30 30 29 29 29 30 30 30 29 29 29 29 28 28 28
28 28 27 27 26 26 27 25 25 25 25 25 25 26 26 27 27 27 27 28 28 29 29 30 30 30 30 30 30 30 29 29 30 30 30 31 31 30 30 30 30 30 29 28
28 28 27 27 27 27 27 26 26 26 25 26 26 26 27 26 26 27 27 27 28 29 30 30 30 29 29 30 30 31 30 30 30 30 30 30 30 30 30 30 30 30 30 29
28 28 27 27 27 26 26 26 26 26 26 26 26 26 26 27 27 27 28 28 28 29 30 30 30 29 30 31 31 31 31 30 31 31 30 30 30 30 30 30 30 29 29 30
29 28 28 28 28 27 26 26 27 26 26 26 26 26 26 26 26 27 28 29 29 30 30 30 30 30 30 30 31 31 31 31 31 31 31 31 30 30 30 30 30 30 30 30
30 29 29 29 28 27 27 27 27 27 27 27 27 27 27 27 26 27 28 28 29 29 30 30 30 30 30 30 30 30 31 31 31 31 31 31 31 30 30 30 31 30 31 31
Wind_Direction
167 162 162 163 154 146 146 137 136 125 103 95 80 68 67 56 27 17 16 20 23 26 25 22 24 24 25 31 28 24 29 32 33 27 20 18 17 12 8 7 5 353 340 332
175 180 180 178 173 151 140 129 126 132 98 79 63 46 36 23 15 21 21 18 20 22 21 21 20 17 14 18 20 20 23 22 19 16 13 10 10 8 7 4 359 354 339 330
189 193 197 200 201 192 199 176 164 156 97 54 35 19 4 10 7 10 7 10 10 10 11 10 11 15 12 14 22 22 19 14 11 8 5 4 3 4 5 3 358 354 345 332
196 202 206 217 222 211 225 221 212 194 60 351 348 340 324 338 341 347 351 356 356 357 358 360 359 4 6 9 13 14 11 10 4 0 0 359 357 356 358 356 353 349 348 339
210 211 212 221 220 216 219 224 222 230 268 302 302 288 301 312 322 330 338 342 340 342 344 345 346 350 356 358 1 3 1 359 356 351 352 351 351 349 348 346 343 341 342 338
218 218 220 224 220 220 228 235 243 270 286 279 283 292 296 304 309 315 318 322 325 326 328 329 328 333 343 350 353 353 351 350 348 345 342 342 344 343 341 339 335 334 335 334
224 224 226 225 227 228 232 231 263 279 284 287 291 295 296 304 303 305 308 310 311 313 314 318 318 323 332 337 340 340 340 339 336 336 335 333 335 335 335 333 331 330 330 329
226 228 230 229 230 232 233 233 235 254 267 280 286 287 293 302 303 304 307 309 310 308 308 313 319 318 321 325 326 329 328 329 330 328 326 326 328 329 330 328 324 325 326 324
224 231 235 233 232 233 238 240 244 258 269 276 277 283 289 291 294 296 298 301 307 309 312 315 315 313 314 317 318 319 319 319 318 316 315 315 317 318 319 322 322 321 320 318
226 232 236 236 237 239 242 245 250 257 266 274 281 285 285 285 290 290 293 295 297 301 303 308 314 314 312 312 313 314 311 311 310 309 308 307 309 312 312 313 315 317 317 316
227 233 239 239 240 245 248 247 251 255 256 262 275 275 278 284 288 287 285 287 286 286 289 295 301 308 310 310 310 310 308 307 306 305 306 308 306 306 306 307 307 310 312 311
229 234 240 244 244 245 249 250 253 258 262 261 264 270 274 279 283 283 282 282 282 281 285 290 295 301 304 308 309 308 308 307 306 306 304 306 307 305 304 303 304 305 306 306
233 237 241 246 249 247 247 249 251 256 261 263 265 269 269 272 277 278 279 279 280 282 285 288 290 295 300 303 306 306 306 306 307 307 305 304 303 303 303 302 302 302 303 302
235 238 238 241 246 251 250 248 250 253 259 264 263 265 268 269 273 274 275 276 278 280 283 286 288 291 296 298 301 302 303 304 305 305 305 303 302 303 304 302 302 301 300 299
236 239 240 241 244 247 252 252 254 255 258 262 264 265 266 268 271 272 271 272 275 277 280 283 286 288 292 295 297 297 299 301 302 303 304 304 304 303 303 302 302 301 299 296
237 239 242 243 244 246 250 252 254 259 261 264 265 265 266 267 270 271 271 271 273 275 278 282 286 289 293 294 295 295 297 300 301 302 302 302 302 303 302 301 299 298 296 293
237 239 242 246 248 250 251 253 257 259 261 263 266 268 270 268 269 270 271 271 272 275 278 282 286 289 291 292 293 293 295 297 298 299 299 299 299 299 299 298 297 296 295 292
238 238 242 246 249 251 253 254 257 261 263 264 266 269 271 271 269 270 272 273 274 275 279 282 285 288 290 292 293 291 292 293 295 296 297 297 298 298 297 296 295 294 294 292
239 240 242 247 251 255 255 257 259 262 263 264 266 269 270 271 271 271 272 274 276 277 279 281 284 286 289 291 292 292 291 292 293 295 296 296 296 296 296 295 294 293 293 293
239 240 244 247 250 254 259 259 261 264 265 265 266 270 270 271 271 272 272 274 275 276 279 281 282 284 286 288 290 291 291 291 291 293 295 296 295 296 296 296 294 292 292 293
240 242 245 249 252 256 259 260 262 264 266 266 266 269 271 271 272 274 274 274 275 276 278 281 283 284 285 287 288 290 291 292 292 293 294 295 295 296 297 296 294 293 293 292
242 245 247 250 254 256 259 260 262 265 267 268 269 270 271 272 274 275 276 276 277 277 277 280 282 283 285 286 287 289 291 291 292 292 293 294 294 295 296 297 295 293 293 292
243 245 248 251 255 258 260 262 264 266 267 269 270 271 270 271 273 275 277 277 277 278 280 281 282 282 283 284 286 288 288 288 290 291 292 294 295 295 296 296 297 296 294 292
246 247 250 253 256 258 261 263 264 265 267 269 270 271 271 272 274 276 276 277 278 279 280 281 280 281 282 283 285 286 287 289 290 291 291 293 294 295 295 296 297 297 296 293
247 250 252 254 256 258 261 263 265 266 266 268 269 270 272 274 275 276 277 278 278 280 280 280 280 281 282 283 285 285 286 289 291 292 291 292 293 294 295 295 296 296 297 295
248 251 253 255 257 259 262 264 266 267 267 267 268 269 271 272 274 277 278 278 278 279 280 280 282 283 284 284 285 286 287 288 290 292 291 292 293 293 293 294 294 296 296 295
Height
5925 5927 5928 5927 5927 5928 5928 5928 5928 5928 5927 5926 5926 5925 5924 5924 5923 5922 5920 5919 5917 5916 5915 5913 5912 5911 5910 5908 5907 5906 5905 5904 5903 5901 5899 5898 5896 5894 5893 5891 5890 5888 5887 5886
5926 5927 5927 5927 5927 5928 5928 5928 5928 5928 5927 5927 5926 5926 5925 5924 5923 5922 5921 5920 5918 5917 5916 5915 5913 5912 5910 5909 5908 5907 5905 5904 5903 5902 5900 5898 5897 5895 5893 5891 5890 5888 5887 5885
5925 5926 5926 5927 5928 5928 5928 5928 5928 5928 5928 5927 5927 5927 5926 5925 5924 5923 5921 5920 5919 5918 5917 5915 5914 5913 5911 5910 5908 5907 5906 5904 5903 5902 5900 5898 5897 5895 5893 5892 5890 5888 5886 5885
5923 5924 5925 5926 5927 5928 5928 5928 5928 5928 5928 5928 5928 5928 5926 5925 5924 5923 5922 5920 5919 5918 5917 5916 5915 5913 5912 5910 5909 5908 5906 5905 5903 5902 5901 5899 5897 5895 5893 5892 5890 5888 5886 5885
5922 5923 5924 5925 5926 5927 5927 5927 5928 5928 5928 5928 5928 5928 5927 5925 5924 5923 5921 5920 5919 5918 5917 5916 5915 5914 5912 5911 5909 5908 5907 5905 5904 5902 5900 5899 5897 5895 5893 5891 5889 5887 5886 5884
5921 5922 5923 5924 5925 5925 5926 5927 5927 5927 5928 5929 5928 5927 5927 5924 5923 5922 5921 5919 5918 5917 5916 5915 5914 5913 5912 5911 5909 5908 5907 5905 5904 5902 5900 5898 5896 5894 5892 5890 5888 5886 5884 5883
5919 5920 5921 5922 5923 5924 5925 5927 5929 5929 5929 5928 5926 5926 5926 5923 5922 5921 5920 5918 5917 5916 5915 5915 5914 5913 5912 5911 5909 5908 5906 5905 5903 5901 5899 5897 5895 5893 5891 5889 5887 5885 5883 5881
5918 5919 5919 5920 5922 5923 5924 5926 5928 5929 5929 5927 5925 5924 5924 5922 5921 5920 5919 5917 5916 5915 5914 5913 5913 5912 5911 5910 5908 5907 5905 5903 5902 5900 5898 5896 5894 5892 5890 5888 5886 5884 5881 5879
5916 5917 5917 5918 5919 5921 5921 5923 5924 5925 5925 5925 5924 5923 5922 5920 5919 5918 5917 5916 5915 5914 5913 5912 5911 5910 5909 5908 5906 5905 5903 5901 5900 5898 5896 5894 5892 5890 5888 5886 5884 5882 5880 5878
5911 5913 5914 5915 5916 5917 5919 5920 5921 5923 5923 5923 5923 5921 5920 5918 5917 5916 5915 5914 5913 5912 5911 5910 5910 5909 5907 5906 5904 5902 5901 5899 5897 5895 5893 5891 5890 5888 5886 5884 5882 5879 5877 5875
5908 5910 5911 5912 5913 5914 5915 5916 5917 5918 5919 5921 5921 5922 5917 5915 5915 5913 5912 5912 5911 5910 5910 5909 5908 5906 5905 5903 5902 5900 5898 5896 5894 5892 5890 5888 5886 5884 5883 5881 5879 5876 5874 5872
5903 5906 5907 5908 5909 5910 5911 5912 5914 5915 5915 5915 5917 5919 5913 5913 5912 5911 5910 5909 5909 5908 5907 5906 5905 5904 5902 5901 5899 5897 5895 5893 5891 5889 5887 5885 5883 5881 5879 5877 5875 5873 5871 5869
5899 5901 5903 5904 5906 5906 5907 5908 5909 5911 5912 5912 5913 5915 5910 5909 5909 5908 5907 5906 5906 5905 5904 5903 5902 5901 5899 5898 5896 5894 5892 5889 5887 5885 5883 5881 5879 5877 5875 5873 5871 5868 5866 5864
5894 5896 5899 5902 5902 5902 5903 5904 5905 5906 5907 5908 5908 5908 5907 5905 5905 5904 5904 5903 5902 5901 5900 5900 5898 5897 5895 5894 5892 5890 5888 5885 5883 5881 5879 5876 5874 5872 5870 5868 5865 5863 5861 5859
5888 5891 5893 5895 5896 5897 5898 5899 5900 5901 5902 5903 5903 5902 5902 5901 5901 5900 5899 5899 5898 5897 5896 5895 5894 5892 5891 5889 5887 5885 5883 5881 5878 5876 5874 5871 5869 5867 5864 5862 5860 5857 5855 5853
5883 5885 5887 5889 5890 5892 5893 5894 5895 5895 5896 5897 5897 5897 5897 5896 5896 5895 5895 5894 5893 5892 5892 5890 5889 5887 5886 5884 5882 5880 5878 5876 5873 5871 5868 5866 5863 5861 5858 5856 5853 5851 5848 5846
5877 5880 5882 5884 5885 5886 5888 5889 5889 5890 5891 5891 5892 5892 5891 5891 5890 5890 5889 5889 5888 5887 5886 5885 5883 5882 5880 5878 5876 5874 5872 5870 5867 5865 5862 5860 5857 5854 5852 5849 5846 5843 5841 5839
5871 5874 5876 5878 5879 5880 5884 5883 5884 5884 5885 5885 5885 5885 5885 5884 5884 5883 5883 5882 5882 5881 5880 5878 5877 5875 5874 5871 5869 5867 5865 5862 5860 5858 5855 5852 5850 5847 5845 5842 5839 5836 5833 5831
5865 5867 5869 5872 5873 5874 5876 5876 5877 5878 5878 5879 5879 5878 5878 5877 5877 5877 5876 5876 5875 5874 5873 5872 5870 5869 5867 5865 5863 5860 5858 5855 5852 5850 5847 5845 5842 5839 5837 5834 5831 5828 5825 5823
5858 5860 5863 5865 5867 5868 5870 5869 5870 5872 5871 5871 5871 5871 5871 5871 5871 5871 5870 5869 5868 5867 5866 5865 5863 5862 5860 5858 5855 5852 5850 5847 5845 5843 5840 5837 5835 5832 5829 5826 5823 5820 5818 5815
5851 5853 5855 5857 5859 5861 5861 5862 5864 5865 5865 5864 5864 5864 5864 5864 5864 5863 5862 5861 5860 5859 5858 5857 5855 5853 5852 5849 5847 5844 5842 5840 5837 5835 5832 5829 5826 5823 5821 5818 5815 5812 5810 5807
5844 5846 5848 5850 5852 5855 5853 5855 5856 5856 5856 5856 5856 5856 5856 5856 5855 5854 5854 5853 5852 5851 5850 5848 5847 5845 5843 5841 5839 5837 5835 5832 5829 5827 5824 5821 5818 5815 5812 5810 5807 5804 5801 5799
5836 5839 5841 5843 5846 5845 5846 5847 5847 5848 5848 5848 5848 5848 5848 5847 5847 5846 5846 5845 5844 5842 5841 5840 5838 5837 5835 5833 5831 5829 5826 5823 5821 5819 5816 5813 5810 5807 5804 5801 5798 5795 5793 5790
5829 5831 5833 5835 5836 5837 5838 5838 5839 5839 5840 5840 5839 5839 5839 5839 5839 5838 5837 5837 5835 5834 5832 5831 5829 5828 5827 5825 5822 5820 5817 5815 5813 5810 5808 5805 5802 5799 5796 5793 5790 5787 5784 5781
5821 5823 5825 5827 5828 5829 5830 5830 5831 5831 5831 5832 5831 5831 5831 5831 5830 5830 5829 5828 5827 5825 5824 5822 5821 5819 5817 5816 5813 5811 5809 5806 5804 5802 5799 5796 5793 5790 5787 5784 5781 5778 5776 5773
5813 5815 5817 5819 5820 5822 5822 5822 5823 5823 5823 5823 5823 5823 5823 5822 5822 5821 5820 5819 5818 5816 5815 5813 5812 5810 5808 5806 5804 5802 5800 5798 5795 5793 5790 5787 5784 5781 5779 5776 5773 5770 5768 5765